Wind_Speed
27 27 28 29 30 31 31 31 30 31 31 32 31 30 29 30 32 33 34 35 36 36 35 36 37 38 39 40 40 40 40 42 43 44 44 45 45 46 47 47 47 47 47 47
28 28 29 30 31 32 32 32 32 32 32 33 32 30 29 30 32 33 34 35 36 36 36 37 38 39 40 41 42 42 42 42 43 44 45 46 47 47 48 48 48 48 48 48
29 29 30 31 31 32 32 32 32 32 32 32 33 31 29 30 32 33 34 35 36 36 37 38 39 40 40 41 42 42 42 43 43 44 45 46 47 48 48 48 49 49 49 49
31 31 32 32 32 33 32 33 33 32 32 32 33 33 29 31 32 33 34 35 35 37 38 39 40 41 41 41 43 43 43 43 44 45 45 45 47 47 48 49 50 50 51 51
33 33 33 33 33 34 33 33 33 33 34 34 33 35 30 31 32 33 33 34 35 37 37 38 40 41 41 41 42 42 42 42 43 44 45 45 45 47 47 48 49 50 51 52
35 34 34 34 34 34 34 34 34 35 36 36 34 35 33 32 32 33 34 34 35 36 36 37 38 40 41 41 41 42 42 42 43 44 45 45 45 47 47 47 48 48 49 51
36 35 36 35 35 34 35 35 36 37 37 37 35 35 34 32 33 34 34 34 34 35 36 37 38 39 41 42 42 43 43 43 44 45 46 46 46 47 47 46 47 47 48 49
36 36 35 36 35 35 36 36 36 38 39 38 36 36 34 33 33 33 33 34 34 35 36 37 38 40 41 42 43 44 45 45 45 46 47 47 47 47 47 46 47 48 49 49
37 37 36 37 36 36 36 36 37 39 41 40 38 36 34 34 33 32 33 34 34 35 36 38 39 41 42 42 43 44 45 46 46 46 47 47 47 47 48 48 48 49 49 50
38 38 37 37 37 37 37 37 37 38 41 42 40 37 35 33 33 33 34 35 36 36 38 39 41 41 42 43 43 44 45 46 46 46 47 47 47 48 49 50 50 51 51 51
39 40 38 37 37 37 38 38 38 40 42 43 43 39 36 34 34 34 34 35 37 37 38 39 41 41 42 42 43 43 44 45 46 46 47 48 48 49 49 50 51 51 52 52
39 40 39 38 38 39 39 39 39 40 42 43 45 42 37 36 35 36 36 37 37 38 39 40 41 42 42 42 43 44 44 46 46 47 48 48 48 49 50 50 51 52 52 52
40 41 41 41 40 40 40 40 40 41 43 43 44 42 37 37 36 37 38 38 39 39 40 40 41 42 42 43 43 44 44 45 46 47 48 48 49 50 50 51 51 52 52 52
43 44 43 42 41 42 42 41 42 43 44 44 43 41 37 37 38 38 39 40 40 40 41 41 41 42 43 43 44 44 44 45 45 46 47 48 50 50 51 51 51 51 51 50
44 45 44 43 43 43 44 43 42 43 44 45 42 41 38 38 40 40 40 41 41 41 41 42 42 42 43 43 44 44 45 45 45 46 47 48 49 50 50 50 50 49 49 49
43 44 43 44 43 44 45 43 41 42 43 44 44 42 39 40 41 42 42 42 42 42 42 43 44 44 44 43 43 44 45 46 47 47 48 49 49 49 48 49 49 50 50 50
43 43 43 43 42 45 45 40 41 42 42 42 43 41 41 41 42 43 43 43 43 43 43 43 44 44 44 44 44 45 45 47 48 49 49 48 47 47 47 48 49 50 49 49
42 42 43 43 44 46 42 40 40 41 40 40 41 41 42 42 43 43 44 45 45 45 44 44 44 44 45 45 45 45 46 47 47 48 48 48 46 46 46 47 48 49 49 49
42 42 43 43 45 46 41 39 40 41 41 39 41 41 42 42 43 43 45 46 46 46 45 44 44 44 44 44 44 45 45 46 47 47 47 46 46 46 47 47 47 48 48 47
41 41 42 44 45 46 41 39 40 42 42 39 41 42 42 43 43 43 44 45 46 46 46 45 44 44 44 44 44 44 44 45 45 44 43 44 44 45 46 46 46 46 46 46
41 42 42 43 45 44 40 39 40 41 40 41 42 42 42 43 43 43 44 44 45 44 45 45 45 45 44 44 44 44 44 44 43 42 42 43 44 45 45 45 45 45 44 44
43 43 43 42 44 42 39 40 40 41 41 41 42 42 43 43 43 43 44 44 44 44 45 46 46 45 44 44 44 44 44 43 43 42 42 42 43 43 44 43 43 44 44 43
43 42 43 43 42 41 40 41 41 42 42 42 43 43 43 44 44 44 44 44 44 45 45 46 46 45 44 44 44 44 43 42 42 41 41 41 41 41 41 41 41 40 40 40
42 42 43 43 41 40 41 41 42 43 44 44 44 44 44 44 44 44 44 43 43 44 44 44 44 44 44 44 44 43 43 43 41 40 40 39 39 38 38 37 37 36 36 36
41 42 42 42 40 41 41 42 43 44 45 44 44 44 44 44 44 44 43 43 43 43 43 43 42 42 42 42 42 42 41 41 40 40 39 38 38 36 35 34 33 33 33 33
39 40 41 41 40 42 42 42 44 44 44 44 43 44 43 44 43 43 42 42 42 42 42 41 41 41 41 40 40 40 40 39 38 38 37 36 35 34 33 32 31 31 32 32
Wind_Direction
269 271 274 276 277 280 283 281 281 281 280 279 277 278 279 275 272 271 269 267 263 261 260 259 258 258 258 259 260 261 261 262 262 262 261 262 262 262 262 262 262 262 262 262
269 272 275 277 277 279 281 282 283 283 282 281 279 279 281 278 275 274 272 269 266 263 263 261 259 260 261 261 262 262 263 263 264 263 263 262 262 262 262 262 262 262 260 261
269 273 275 276 277 278 281 283 282 283 283 281 281 280 281 279 277 275 273 271 267 265 265 263 261 262 263 263 263 264 265 265 265 265 264 263 262 263 262 262 262 261 260 260
269 273 274 276 277 278 280 282 282 283 283 282 283 284 282 282 280 278 276 272 270 268 267 265 263 264 263 264 265 265 266 266 267 267 266 265 264 265 264 263 262 261 260 260
270 272 274 276 277 277 279 281 281 281 282 282 283 285 286 284 282 280 278 274 271 271 269 267 266 266 265 265 265 266 267 267 267 268 268 267 266 266 265 264 263 262 261 260
269 271 273 275 275 276 278 280 281 280 281 282 284 285 287 284 282 281 279 275 272 271 269 268 268 267 266 266 267 267 268 268 268 269 269 269 268 268 267 266 265 263 262 261
268 270 272 273 274 276 278 280 281 281 281 283 284 285 287 285 282 280 279 277 273 271 270 270 270 269 268 267 267 267 268 269 269 269 269 269 270 269 268 267 266 264 263 261
269 270 271 272 273 275 277 278 279 280 281 283 283 284 285 284 281 281 280 278 275 273 272 271 270 269 269 268 267 268 269 270 269 268 269 269 269 269 268 268 266 265 264 262
270 271 271 272 273 275 277 277 278 279 281 281 282 283 283 282 282 281 281 279 276 275 274 273 272 271 271 270 270 270 271 271 270 270 270 270 269 269 269 269 268 267 265 263
269 270 270 271 272 274 275 277 277 277 279 281 281 281 283 283 283 282 282 280 277 276 276 275 273 272 272 273 273 273 273 272 272 271 271 271 270 270 269 269 269 268 267 265
269 270 270 271 272 273 274 275 275 275 277 279 280 281 283 283 284 283 281 280 279 277 277 276 275 275 275 275 275 274 273 274 274 273 272 272 272 270 269 270 270 269 267 265
267 269 270 271 272 272 273 273 274 274 275 276 279 281 283 283 282 282 281 280 280 280 279 278 278 278 278 277 277 276 276 275 275 274 273 272 272 271 271 271 271 269 267 267
266 268 270 271 271 273 273 273 274 275 274 276 278 282 284 283 283 282 282 281 280 280 279 279 279 280 280 278 277 278 278 277 277 275 274 273 272 272 272 273 272 270 268 267
265 267 268 270 271 272 273 273 273 273 275 278 279 281 282 282 281 281 281 282 282 281 282 281 281 281 280 279 278 279 278 278 278 276 275 274 274 273 272 271 272 270 268 266
265 267 268 268 269 270 271 272 272 273 276 279 280 280 282 281 280 281 281 282 283 283 283 282 282 282 282 281 280 279 279 278 278 278 276 276 275 274 272 272 271 270 268 266
264 266 268 269 270 270 270 271 272 273 276 278 279 280 281 280 281 281 281 282 283 284 283 283 284 284 284 284 284 281 280 279 279 279 278 278 277 275 273 272 271 271 270 267
264 265 267 268 269 269 270 273 273 274 275 276 277 280 280 280 280 281 281 281 282 283 283 283 284 285 285 285 284 283 282 281 281 280 280 279 277 275 273 273 273 273 270 268
264 265 267 269 269 270 275 275 275 275 274 275 277 279 280 281 281 282 282 283 283 283 283 284 285 285 286 286 284 283 283 283 282 281 280 279 277 275 274 275 275 273 271 271
264 266 267 269 271 273 275 277 277 276 274 276 278 280 281 282 282 283 283 284 284 284 284 284 285 285 286 287 286 284 283 283 282 281 280 279 277 276 276 277 276 274 273 273
264 266 268 271 273 276 279 278 277 276 276 278 278 280 282 283 283 284 284 285 285 285 285 285 285 285 286 286 285 285 284 284 283 281 280 279 279 279 278 278 277 275 275 274
264 265 268 271 273 276 280 280 279 278 280 279 281 282 283 284 285 286 286 285 285 285 285 286 286 286 286 285 284 284 284 284 284 283 282 281 281 281 281 279 278 276 275 274
265 267 269 271 272 277 279 278 278 278 279 281 283 283 284 285 287 287 287 286 286 286 286 286 287 287 286 285 284 284 284 283 283 284 283 283 283 282 281 280 278 277 275 274
264 267 269 270 272 276 276 277 278 278 279 280 282 284 284 286 287 288 287 287 287 287 287 287 287 287 287 285 283 283 283 283 283 284 284 284 284 283 282 281 280 279 276 274
264 265 267 270 272 274 274 276 277 277 278 280 281 282 284 286 287 287 287 286 286 287 287 287 287 287 286 285 284 284 283 283 283 283 283 283 283 283 282 281 281 279 278 276
265 266 267 270 273 272 273 274 276 276 278 279 280 282 284 285 286 287 287 287 287 287 287 287 287 287 286 285 284 284 284 283 282 282 282 282 282 282 281 281 281 280 278 278
266 268 269 271 272 272 273 273 275 277 279 279 280 281 283 285 287 287 286 287 287 287 287 287 287 287 287 286 285 285 285 284 283 282 282 282 283 283 281 279 278 277 277 277
Height
5717 5718 5717 5716 5715 5714 5712 5711 5711 5710 5708 5707 5707 5708 5708 5707 5705 5705 5705 5705 5706 5708 5709 5710 5711 5712 5714 5715 5717 5718 5719 5719 5720 5722 5723 5724 5725 5727 5728 5729 5730 5730 5731 5731
5711 5711 5711 5709 5708 5707 5705 5704 5703 5703 5701 5699 5700 5701 5701 5699 5699 5698 5698 5697 5698 5699 5700 5701 5702 5703 5705 5705 5706 5707 5708 5709 5709 5710 5711 5712 5713 5714 5715 5716 5717 5718 5718 5719
5704 5705 5703 5702 5701 5700 5698 5697 5696 5695 5694 5693 5692 5694 5694 5692 5691 5690 5689 5689 5689 5690 5691 5692 5693 5694 5695 5696 5696 5697 5698 5698 5698 5699 5699 5700 5700 5701 5702 5704 5705 5705 5706 5707
5697 5697 5696 5695 5694 5692 5692 5690 5688 5687 5686 5686 5686 5684 5688 5685 5684 5682 5681 5681 5681 5681 5682 5682 5683 5684 5685 5686 5686 5686 5687 5687 5687 5687 5687 5688 5688 5689 5690 5691 5691 5692 5693 5694
5690 5689 5689 5688 5687 5685 5684 5683 5681 5680 5679 5679 5679 5677 5680 5678 5676 5674 5673 5673 5672 5672 5672 5673 5674 5674 5675 5675 5676 5676 5676 5676 5676 5676 5676 5676 5676 5676 5677 5677 5678 5679 5679 5681
5682 5681 5681 5680 5679 5678 5676 5676 5674 5673 5672 5672 5673 5670 5671 5670 5668 5667 5666 5665 5664 5664 5663 5664 5664 5664 5664 5665 5665 5665 5665 5666 5665 5665 5664 5664 5664 5664 5664 5665 5665 5666 5666 5668
5674 5674 5673 5672 5672 5671 5669 5668 5667 5665 5664 5664 5664 5662 5664 5662 5660 5658 5658 5657 5656 5655 5655 5654 5654 5654 5654 5654 5654 5654 5654 5654 5654 5653 5653 5653 5652 5652 5652 5653 5653 5653 5654 5655
5665 5666 5665 5664 5664 5663 5662 5661 5659 5657 5655 5655 5655 5654 5656 5654 5651 5650 5649 5648 5647 5646 5646 5645 5644 5644 5644 5643 5643 5643 5643 5642 5642 5641 5641 5641 5640 5640 5640 5640 5640 5640 5641 5642
5656 5657 5657 5656 5655 5654 5653 5652 5651 5649 5646 5645 5646 5647 5648 5646 5644 5642 5641 5640 5638 5637 5636 5635 5635 5634 5633 5632 5632 5631 5631 5630 5629 5629 5629 5629 5628 5628 5628 5628 5627 5628 5628 5629
5646 5647 5648 5647 5646 5645 5645 5643 5642 5639 5636 5635 5636 5638 5639 5637 5636 5635 5633 5631 5629 5628 5627 5625 5624 5623 5622 5621 5621 5620 5619 5618 5617 5617 5616 5616 5616 5616 5615 5615 5614 5614 5615 5615
5637 5638 5639 5639 5638 5637 5636 5635 5632 5630 5628 5626 5625 5631 5631 5629 5627 5625 5623 5621 5620 5618 5617 5615 5614 5613 5611 5610 5609 5608 5607 5606 5605 5604 5604 5603 5602 5602 5601 5601 5600 5600 5600 5600
5627 5627 5628 5629 5629 5627 5626 5625 5624 5622 5620 5617 5615 5621 5622 5620 5618 5615 5613 5611 5609 5608 5606 5605 5603 5602 5601 5599 5598 5597 5595 5594 5593 5591 5590 5590 5589 5588 5588 5587 5586 5586 5585 5585
5618 5618 5618 5619 5620 5618 5617 5616 5614 5612 5610 5608 5606 5611 5612 5610 5607 5605 5603 5601 5599 5598 5596 5595 5593 5592 5590 5588 5586 5585 5583 5582 5580 5579 5577 5577 5576 5575 5574 5573 5572 5571 5571 5571
5607 5607 5609 5609 5608 5607 5606 5606 5605 5602 5600 5599 5599 5600 5603 5600 5597 5595 5592 5590 5588 5587 5585 5584 5582 5580 5578 5576 5575 5573 5571 5569 5568 5566 5565 5564 5563 5562 5560 5559 5558 5557 5557 5556
5596 5596 5597 5598 5597 5596 5596 5596 5595 5593 5591 5589 5590 5590 5591 5588 5586 5584 5582 5580 5578 5577 5575 5573 5571 5569 5567 5565 5563 5561 5559 5557 5555 5554 5552 5550 5549 5547 5546 5545 5544 5543 5543 5542
5585 5585 5586 5587 5587 5585 5585 5586 5585 5583 5582 5579 5578 5580 5580 5577 5575 5573 5571 5569 5567 5566 5564 5562 5560 5558 5555 5553 5551 5549 5547 5545 5543 5541 5539 5537 5535 5533 5532 5531 5530 5530 5530 5529
5575 5575 5575 5575 5575 5573 5575 5578 5575 5573 5572 5570 5568 5570 5568 5566 5565 5563 5561 5559 5557 5555 5553 5550 5548 5546 5544 5542 5539 5537 5535 5532 5530 5528 5525 5523 5521 5520 5519 5518 5517 5516 5516 5516
5565 5564 5563 5563 5564 5562 5570 5567 5565 5562 5562 5560 5559 5558 5557 5555 5554 5552 5550 5548 5546 5543 5541 5539 5537 5535 5532 5530 5527 5525 5522 5519 5517 5514 5512 5510 5508 5507 5506 5505 5504 5503 5502 5502
5555 5554 5553 5552 5551 5551 5557 5556 5553 5550 5551 5551 5548 5547 5545 5544 5543 5542 5538 5536 5534 5532 5530 5528 5525 5523 5520 5518 5515 5512 5510 5507 5504 5501 5499 5497 5496 5495 5493 5492 5491 5490 5489 5489
5544 5543 5543 5541 5539 5540 5547 5545 5541 5539 5540 5541 5538 5536 5535 5533 5532 5532 5528 5525 5523 5520 5518 5516 5513 5511 5508 5505 5503 5500 5497 5494 5491 5489 5487 5485 5484 5482 5481 5479 5478 5477 5476 5476
5533 5532 5532 5531 5528 5530 5535 5533 5530 5530 5530 5528 5526 5525 5523 5521 5520 5519 5516 5514 5511 5509 5506 5504 5501 5499 5496 5493 5490 5488 5485 5482 5479 5477 5475 5473 5471 5470 5468 5467 5465 5464 5463 5463
5522 5521 5522 5521 5519 5524 5523 5520 5519 5518 5517 5516 5514 5513 5511 5510 5508 5506 5504 5502 5499 5497 5495 5492 5489 5487 5483 5480 5478 5475 5473 5470 5468 5466 5463 5461 5459 5458 5456 5454 5453 5451 5450 5450
5510 5512 5511 5511 5513 5513 5511 5509 5507 5506 5505 5504 5503 5502 5500 5498 5496 5494 5492 5490 5487 5485 5483 5480 5477 5475 5472 5468 5466 5463 5461 5458 5456 5454 5452 5450 5448 5446 5444 5442 5441 5440 5439 5438
5499 5500 5499 5499 5501 5501 5499 5497 5496 5494 5493 5492 5491 5490 5488 5486 5485 5483 5481 5478 5476 5473 5471 5468 5465 5462 5460 5456 5453 5451 5449 5447 5445 5443 5441 5439 5438 5436 5434 5432 5430 5429 5428 5428
5488 5488 5487 5487 5490 5488 5488 5486 5484 5482 5481 5480 5479 5478 5476 5475 5473 5471 5469 5467 5464 5461 5459 5456 5453 5450 5448 5445 5442 5439 5437 5435 5434 5432 5430 5429 5427 5425 5424 5423 5421 5420 5420 5418
5479 5477 5476 5477 5478 5475 5476 5475 5473 5471 5470 5469 5467 5466 5465 5463 5461 5459 5457 5455 5452 5450 5447 5444 5441 5438 5436 5433 5431 5428 5426 5424 5422 5421 5419 5418 5417 5416 5415 5414 5413 5412 5411 5410